Disclaimer

Please do not use the information listed here in-flight or in-navigation, as they are not provided to us by the airports but are provided by volunteers, so they might be outdated.

Search


Regions


Airport information page

Radio informations:
KERMANSHAH TWR - 122.45 MHz
KERMANSHAH INFO - 126.8 MHz

Airport informations:
Latitude: 34° 20' 45.07" N
Longitude: 047° 09' 29.26" E
Elevation: 4301 feet - 1311 meters
Operating hours: Remarks
Operating agency: Military-civil joint use airport
Timezone: UTC+3:30
Fuel: Jet A1, without icing nhibitor.

100/130 MIL Spec, low lead, aviation gasoline (BLUE)

Runway information:
11/29 - 11216 x 148 feet< - >3419 x 45 meters

Recent METARs:
OICC 170830Z 22017KT 5000 TSSN SCT020CB SCT030 OVC060 02/M01 Q1006 A2971 TEMPO SHRA
OICC 170930Z 33010KT 9999 SCT040 BKN080 03/M01 Q1005 A2970 TEMPO SHRA
OICC 171000Z 30008KT 9999 FEW035CB SCT040 BKN080 03/M02 Q1006 A2973 TEMPO SHRA

Airport on the map: